Location: Unspecified
(0.0000°N, 0.0000°E)
Time: 09:36:59
(UTC+00:00)

deb Briz - Pass Details

Date: 19 February 2026
Orbit: 1949 x 2166 km, 64.8° (Epoch: 9 March)

Event Time Altitude Azimuth Distance (km) Brightness Sun altitude
Rises 03:42:32 0° 4° (N) 5,569 ? -37.0°
Reaches altitude 10° 03:46:56 10° 17° (NNE) 4,600 ? -35.9°
Maximum altitude 03:56:11 25° 68° (ENE) 3,552 ? -33.7°
Drops below altitude 10° 04:05:28 10° 119° (ESE) 4,684 ? -31.4°
Sets 04:09:53 0° 131° (SE) 5,691 ? -30.3°
